Location: Most
(50.5330°N, 13.6500°E)
Time: 18:33:42
(UTC+01:00)

ISS - Visible Passes

Search period start: 21 March 2019 00:00
Search period end: 31 March 2019 00:00
Orbit: 406 x 411 km, 51.6° (Epoch: 21 March)

Date Brightness Start Highest point End Pass type
(mag) Time Alt. Az. Time Alt. Az. Time Alt. Az.
21 Mar -1.1 20:28:36 10° SSW 20:28:52 12° SSW 20:28:52 12° SSW visible
22 Mar -2.3 19:38:07 10° SSW 19:40:38 21° SE 19:40:42 21° SE visible
23 Mar -3.2 20:22:33 10° SW 20:25:05 43° SSW 20:25:05 43° SSW visible
24 Mar -3.2 19:31:41 10° SW 19:34:46 37° SSE 19:36:30 21° E visible
24 Mar -1.6 21:07:54 10° W 21:09:16 23° W 21:09:16 23° W visible
25 Mar -3.9 20:16:46 10° WSW 20:20:04 85° S 20:20:31 64° E visible
26 Mar -3.8 19:25:41 10° WSW 19:28:58 64° SSE 19:31:39 14° E visible
26 Mar -2.3 21:02:16 10° W 21:04:24 36° WNW 21:04:24 36° WNW visible
27 Mar -3.7 20:11:04 10° W 20:14:23 75° N 20:15:26 40° ENE visible
27 Mar -0.7 21:47:44 10° WNW 21:48:10 13° WNW 21:48:10 13° WNW visible
28 Mar -3.8 19:19:54 10° WSW 19:23:12 87° NNW 19:26:23 11° ENE visible
28 Mar -2.9 20:56:34 10° W 20:59:07 49° WNW 20:59:07 49° WNW visible
29 Mar -3.7 20:05:22 10° W 20:08:41 70° N 20:10:02 32° ENE visible
29 Mar -1.0 21:41:59 10° WNW 21:42:45 16° W 21:42:45 16° W visible
30 Mar -3.6 19:14:09 10° W 19:17:27 72° N 19:20:46 10° E visible
30 Mar -3.4 20:50:48 10° WNW 20:53:37 61° W 20:53:37 61° W visible
